[[{"header":{"parameterUnit":"m.s-1","parameterCategory":1,"la1":30.2991,"la2":30.254,"lo1":-89.0895,"lo2":-89.0444,"dy":0.0017,"dx":0.0017,"nx":28,"ny":28,"refTime":"2025-06-15T21:00:00:Z","depth":0,"parameterNumber":2,"parameterNumberName":"U-component_of_WINDS"},"data":[0,0,0,0,0,0,0,0,0,0,0,0,0,0,0,0,0,0,0,0,0,0,0,0,0,0,0,0,0,0,0,0,0,0,0,0,0,0,0,0,0,0,0,0,0,0,0,0,0,0,0,0,0,0,0,0,0,0,0.9924,0.9924,0,0.994,0.994,0.994,0.9965,0.9966,0.9966,0.9966,0.9983,0.9983,0.9983,0,0,0,0,0,0,0,0,0,0,0,0,0,0.9916,0.9916,0.9924,0.9924,0.9924,0.994,0.994,0.994,0.9965,0.9966,0.9966,0.9967,0.9983,0.9983,0.9983,0,0,0,0,0,0,0,0,0,0,0,0,0,0.9924,0.9916,0.9924,0.9939,0.994,0.994,0.994,0.994,0.9965,0.9966,0.9966,0.9967,0.9983,0.9983,0.9983,0.9969,0,0,0.9983,0.9983,0,0,0,0,0,0,0,0,0.9924,0.9925,0.9936,0.9937,0.9939,0.9951,0.9943,0.995,0.9965,0.9955,0.9966,0.9967,0.9972,0.9973,0.9974,0.997,0.9971,0.9983,0.9983,0.9983,0.9983,0,0,0,0,0,0,0,0.9923,0.9924,0.993,0.9936,0.9938,0.9945,0.9947,0.9945,0.996,0.9956,0.9958,0.996,0.9973,0.9974,0.9975,0.9971,0.9983,0.9983,0.9983,0.9983,0.9958,0.9958,0,0,0,0,0,0,0.992,0.9923,0.993,0.9931,0.9933,0.9944,0.9946,0.9947,0.996,0.9962,0.9959,0.9961,0.9974,0.9975,0.9975,0.9961,0.9983,0.9983,0.9983,0.9959,0.9958,0.9958,0,0,0,0,0,0,0.992,0.9921,0.9929,0.9928,0.9929,0.9944,0.9944,0.9947,0.9948,0.9962,0.9965,0.9958,0.9974,0.9975,0.9971,0.9962,0.9983,0.9983,0.996,0.9959,0.9958,0.9932,0,0,0,0,0,0,0.992,0.992,0.9915,0.9927,0.9929,0.9924,0.9943,0.9946,0.9948,0.995,0.9961,0.9964,0.9975,0.9971,0.9971,0.9962,0.9983,0.9961,0.9959,0.9958,0.9934,0.993,0.9927,0,0,0,0,0,0.9919,0.9907,0.9915,0.9915,0.9923,0.9923,0.9924,0.9937,0.9947,0.9942,0.9951,0.9963,0.9963,0.997,0.9971,0.9962,0.9961,0.996,0.9958,0.9935,0.9931,0.9927,0,0,0,0,0,0,0.9893,0.9909,0.9917,0.9908,0.9914,0.9927,0.9921,0.9932,0.9936,0.9938,0.9954,0.9956,0.995,0.9956,0.9963,0.995,0.9964,0.9963,0.9946,0.9942,0.9939,0.9937,0.9983,0,0,0,0,0,0.9886,0.9885,0.9899,0.989,0.9892,0.9906,0.9907,0.9917,0.9924,0.9926,0.9935,0.9941,0.9943,0.9943,0.9945,0.9935,0.9938,0.993,0.9926,0.9924,0.9922,0.9918,0.9914,0.9953,0.9953,0.9953,0,0,0.9871,0.988,0.9878,0.9885,0.989,0.9889,0.9908,0.9906,0.9905,0.9926,0.9922,0.9929,0.9937,0.993,0.9927,0.9935,0.9912,0.9922,0.9919,0.9919,0.9916,0.9912,0.9909,0.9952,0.9952,0.9952,0,0,0.9844,0.9851,0.9844,0.985,0.9858,0.9868,0.9867,0.9879,0.9884,0.9881,0.9897,0.9897,0.9899,0.9904,0.9907,0.9884,0.9895,0.9885,0.9867,0.9863,0.986,0.9857,0.9849,0.9846,0.9883,0.9883,0.9883,0,0.9825,0.9823,0.9839,0.9836,0.9839,0.9858,0.9852,0.9857,0.9865,0.9867,0.9875,0.9879,0.9886,0.9881,0.9875,0.9877,0.9876,0.9883,0.9859,0.9857,0.9854,0.9847,0.9844,0.9881,0.9882,0.9882,0.9882,0,0.9799,0.9798,0.9792,0.9801,0.9803,0.9798,0.9813,0.9814,0.9824,0.9833,0.983,0.984,0.9844,0.9844,0.9854,0.9841,0.9845,0.9856,0.987,0.9849,0.9842,0.9839,0.9879,0.988,0.988,0.9881,0,0,0.9753,0.9772,0.9769,0.9774,0.9786,0.9786,0.9783,0.9788,0.9788,0.9794,0.9792,0.9795,0.9805,0.9809,0.982,0.9816,0.9798,0.9828,0.9828,0.9821,0.9784,0.9775,0.9771,0.9806,0.9806,0.9805,0.9783,0,0.9728,0.9723,0.9738,0.973,0.9729,0.9749,0.9747,0.9754,0.9763,0.9765,0.9775,0.9776,0.979,0.9793,0.979,0.98,0.979,0.9802,0.9804,0.9804,0.98,0.9768,0.9758,0.9736,0.9781,0.978,0.978,0,0.9697,0.9702,0.9694,0.9708,0.9708,0.9705,0.9712,0.9713,0.9723,0.973,0.9734,0.9748,0.9746,0.9761,0.976,0.9767,0.9769,0.9775,0.9774,0.9774,0.979,0.9766,0.973,0.9726,0.9776,0.9776,0.9776,0,0.9664,0.9669,0.9665,0.9668,0.9684,0.9682,0.9689,0.9699,0.9702,0.9708,0.971,0.9715,0.9718,0.9723,0.9737,0.9747,0.9734,0.975,0.974,0.974,0.9735,0.9735,0.9698,0.9738,0.9738,0.9738,0.9738,0,0.9633,0.9627,0.965,0.9647,0.9642,0.966,0.9654,0.9662,0.9672,0.9672,0.969,0.9689,0.9709,0.9711,0.9723,0.972,0.9721,0.9727,0.973,0.9725,0.9724,0.9725,0.9727,0.9737,0.9738,0.9738,0.9738,0,0.9594,0.9609,0.9606,0.9622,0.9626,0.9621,0.9636,0.9634,0.9646,0.9645,0.9646,0.9663,0.9667,0.9683,0.969,0.9698,0.9691,0.9697,0.9687,0.9689,0.9678,0.9678,0.964,0.9636,0.9679,0.9678,0.9678,0,0.9572,0.9568,0.9585,0.9586,0.9592,0.9594,0.9597,0.9615,0.9618,0.963,0.9627,0.9632,0.9637,0.9642,0.9655,0.9661,0.9667,0.9653,0.9668,0.9663,0.9666,0.9666,0.9666,0.965,0.9649,0.9649,0.9648,0,0.9533,0.9541,0.9545,0.9551,0.9555,0.9561,0.9568,0.9568,0.9589,0.9591,0.9595,0.9599,0.9607,0.9612,0.962,0.9628,0.9641,0.9644,0.9642,0.9636,0.963,0.9632,0.9678,0.9644,0.9645,0.9645,0.9645,0.9645,0.9501,0.9499,0.9511,0.9514,0.9522,0.9529,0.9529,0.9541,0.9544,0.9552,0.9563,0.9566,0.9577,0.959,0.9597,0.96,0.9607,0.9604,0.9603,0.9602,0.9599,0.9631,0.9602,0.9602,0.9602,0.9602,0.9602,0,0.9462,0.9471,0.9475,0.9485,0.9488,0.9502,0.9511,0.9513,0.9515,0.9525,0.953,0.9535,0.9541,0.9555,0.9562,0.9562,0.9568,0.9563,0.9562,0.9564,0.9592,0.9593,0.9558,0.9558,0.9558,0.9558,0.9558,0.9558,0.9442,0.9439,0.9449,0.945,0.946,0.9462,0.9467,0.9473,0.9481,0.9486,0.9491,0.9501,0.9513,0.9522,0.9528,0.9532,0.9533,0.9526,0.9532,0.9558,0.9562,0.9566,0.9567,0.9526,0.9526,0.9503,0.9503,0.9503]},{"header":{"parameterUnit":"m.s-1","parameterCategory":1,"la1":30.2991,"la2":30.254,"lo1":-89.0895,"lo2":-89.0444,"dy":0.0017,"dx":0.0017,"nx":28,"ny":28,"refTime":"2025-06-15T21:00:00:Z","depth":0,"parameterNumber":3,"parameterNumberName":"V-component_of_WINDS"},"data":[0,0,0,0,0,0,0,0,0,0,0,0,0,0,0,0,0,0,0,0,0,0,0,0,0,0,0,0,0,0,0,0,0,0,0,0,0,0,0,0,0,0,0,0,0,0,0,0,0,0,0,0,0,0,0,0,0,0,3.1185,3.1186,0,3.129,3.1291,3.1293,3.1351,3.1351,3.1351,3.1351,3.1454,3.1456,3.1459,0,0,0,0,0,0,0,0,0,0,0,0,0,3.103,3.1033,3.1185,3.1187,3.1188,3.129,3.1292,3.1293,3.1351,3.1351,3.1351,3.1351,3.1453,3.1456,3.1459,0,0,0,0,0,0,0,0,0,0,0,0,0,3.1112,3.1033,3.1185,3.1229,3.1234,3.129,3.1292,3.1293,3.1351,3.1351,3.1351,3.1351,3.1452,3.1456,3.1459,3.1477,0,0,3.1471,3.1473,0,0,0,0,0,0,0,0,3.1108,3.1118,3.1221,3.1226,3.1232,3.1308,3.1274,3.1355,3.1351,3.1306,3.1351,3.1352,3.1405,3.1412,3.1431,3.1482,3.1487,3.1471,3.1474,3.1475,3.1476,0,0,0,0,0,0,0,3.1102,3.1114,3.1227,3.1223,3.1229,3.1242,3.1254,3.129,3.1352,3.131,3.1315,3.1327,3.1407,3.1427,3.1434,3.1488,3.1471,3.1475,3.1477,3.1478,3.1559,3.1559,0,0,0,0,0,0,3.109,3.1109,3.1223,3.123,3.1169,3.1245,3.1258,3.1283,3.1352,3.1363,3.1326,3.1329,3.1421,3.1429,3.1438,3.1464,3.1475,3.1479,3.1481,3.1559,3.1559,3.1559,0,0,0,0,0,0,3.1086,3.1099,3.1219,3.1171,3.1187,3.1247,3.1275,3.1285,3.1305,3.1365,3.1375,3.1335,3.1421,3.1432,3.1468,3.1468,3.1481,3.1484,3.1559,3.1559,3.1559,3.1516,0,0,0,0,0,0,3.1081,3.1098,3.1107,3.117,3.1189,3.1248,3.1275,3.1287,3.1312,3.1317,3.1376,3.1386,3.1422,3.1462,3.1471,3.1474,3.1487,3.156,3.1559,3.1559,3.1518,3.1515,3.1512,0,0,0,0,0,3.1076,3.1089,3.1107,3.112,3.1202,3.1248,3.1259,3.1302,3.1312,3.1321,3.1359,3.1384,3.1467,3.1465,3.1476,3.148,3.156,3.1559,3.1559,3.1519,3.1515,3.1512,0,0,0,0,0,0,3.1022,3.1098,3.1119,3.1154,3.1194,3.1258,3.1271,3.1296,3.1334,3.1336,3.1386,3.1399,3.1429,3.1458,3.1455,3.1501,3.1516,3.1518,3.1481,3.1478,3.1475,3.1468,3.149,0,0,0,0,0,3.1015,3.1048,3.1112,3.1136,3.1156,3.1209,3.1231,3.1261,3.1305,3.1322,3.1362,3.1402,3.1437,3.1459,3.1494,3.1522,3.1535,3.153,3.1527,3.1524,3.1525,3.1542,3.154,3.1558,3.1558,3.1558,0,0,3.0999,3.1045,3.1063,3.1127,3.1162,3.1194,3.1224,3.1256,3.128,3.1326,3.1363,3.1393,3.1441,3.1472,3.1488,3.1497,3.1523,3.1524,3.1521,3.1524,3.1541,3.1539,3.1538,3.1557,3.1558,3.1558,0,0,3.0988,3.1025,3.105,3.1085,3.1138,3.1174,3.118,3.124,3.1263,3.13,3.1336,3.1364,3.1423,3.1456,3.148,3.148,3.1504,3.149,3.1474,3.1489,3.1488,3.1487,3.1487,3.1486,3.149,3.149,3.149,0,3.0961,3.1012,3.1059,3.109,3.1117,3.1162,3.1187,3.1217,3.1279,3.1296,3.1305,3.1381,3.1416,3.1455,3.1455,3.1473,3.1481,3.1483,3.1485,3.1484,3.1484,3.1484,3.1484,3.1488,3.1488,3.1489,3.1489,0,3.0977,3.1012,3.1025,3.1085,3.1114,3.1141,3.1191,3.1213,3.124,3.1274,3.1311,3.1355,3.14,3.1411,3.1437,3.1454,3.1458,3.1475,3.1491,3.1479,3.1481,3.1481,3.1485,3.1486,3.1487,3.1487,0,0,3.0935,3.1021,3.1025,3.1053,3.1115,3.1142,3.1171,3.1217,3.1235,3.1275,3.13,3.1349,3.1365,3.1393,3.1422,3.1436,3.1433,3.1452,3.1453,3.1447,3.1455,3.1442,3.1442,3.145,3.145,3.145,3.1451,0,3.0933,3.0989,3.1032,3.1071,3.1103,3.1146,3.1171,3.1211,3.1243,3.1274,3.1308,3.1342,3.1361,3.1378,3.1393,3.143,3.1436,3.1431,3.1472,3.1473,3.146,3.1443,3.1429,3.1428,3.1452,3.1452,3.1452,0,3.0938,3.0979,3.1021,3.108,3.1095,3.1117,3.1162,3.1192,3.1237,3.1259,3.129,3.1321,3.1352,3.1364,3.1407,3.1403,3.1422,3.1442,3.1443,3.1449,3.1462,3.1448,3.1429,3.1428,3.1453,3.1453,3.1453,0,3.0904,3.0969,3.1003,3.1025,3.1094,3.1109,3.1138,3.1184,3.1208,3.1247,3.1263,3.1304,3.1327,3.1357,3.1398,3.1403,3.1436,3.1452,3.1455,3.1453,3.146,3.1459,3.1444,3.1471,3.1471,3.1471,3.1471,0,3.0897,3.0921,3.0989,3.101,3.1038,3.1086,3.1112,3.1145,3.1185,3.1212,3.125,3.1274,3.1326,3.1356,3.1388,3.1418,3.1428,3.1446,3.1454,3.1443,3.1441,3.1457,3.1458,3.1471,3.1471,3.1471,3.1471,0,3.0864,3.091,3.095,3.1012,3.1028,3.1046,3.1099,3.112,3.1154,3.1188,3.1198,3.1251,3.1289,3.1332,3.1383,3.1404,3.1432,3.1444,3.1417,3.1422,3.1423,3.1422,3.1417,3.1419,3.1444,3.1444,3.1444,0,3.0857,3.0877,3.0941,3.0963,3.0992,3.1026,3.1052,3.1099,3.1124,3.1177,3.1191,3.1232,3.1267,3.1324,3.1366,3.1405,3.1418,3.1414,3.1424,3.1412,3.1419,3.1417,3.1419,3.1411,3.1411,3.141,3.141,0,3.0839,3.0861,3.0898,3.0942,3.0973,3.1009,3.1048,3.1063,3.1117,3.1143,3.1183,3.121,3.1263,3.1302,3.1346,3.1374,3.1401,3.1406,3.1409,3.1398,3.1382,3.1391,3.141,3.1406,3.1407,3.1407,3.1407,3.1407,3.082,3.0839,3.0888,3.0928,3.0962,3.0997,3.102,3.1057,3.1092,3.114,3.1165,3.1204,3.1247,3.131,3.1337,3.1367,3.1376,3.138,3.1381,3.1382,3.1379,3.1377,3.1375,3.1375,3.1375,3.1376,3.1376,0,3.0805,3.0838,3.0874,3.0927,3.0958,3.0982,3.1025,3.1049,3.1083,3.1122,3.1157,3.1201,3.124,3.1285,3.1326,3.1341,3.1354,3.135,3.135,3.1356,3.1368,3.1362,3.1339,3.1339,3.1339,3.1339,3.1339,3.1339,3.0801,3.0836,3.0863,3.0915,3.0948,3.0988,3.1011,3.1043,3.1075,3.1124,3.1157,3.1186,3.1228,3.1272,3.1308,3.132,3.1333,3.1325,3.1341,3.1352,3.1355,3.1358,3.1352,3.1328,3.1328,3.1326,3.1326,3.1326]}]]